Theta_e
341 345 343 343 343 343 339 340 342 352 353 348 347 348 351 353 350 350 354 353 352 352 346 346 343 344 348 345 343 343 342 343 342 344 343 339 333 332 338 340 340 340 338
348 341 341 342 343 346 345 341 341 342 344 344 345 347 348 349 349 349 349 352 351 347 345 348 348 353 347 345 348 344 343 342 342 343 344 343 337 331 339 340 340 335 335
351 347 348 345 343 349 352 347 345 343 344 346 346 345 345 344 343 345 345 348 347 352 351 348 348 351 350 351 350 347 345 342 341 341 341 341 339 330 339 340 339 337 336
351 352 350 351 352 352 353 348 350 347 347 348 348 348 346 345 345 346 355 348 350 354 350 351 355 353 348 350 351 351 347 344 342 341 339 338 337 339 340 341 340 337 336
351 345 346 347 352 354 355 354 347 349 352 349 349 349 348 345 344 344 344 345 350 346 353 353 352 352 346 348 347 350 349 345 342 341 339 337 335 339 340 340 340 339 336
351 357 357 349 348 348 350 354 346 347 348 349 349 346 347 350 348 349 352 352 351 354 352 351 354 349 345 345 347 348 346 346 344 342 342 337 334 337 339 340 339 339 334
348 349 350 351 351 353 352 351 352 351 347 346 344 342 342 341 341 344 349 351 351 350 351 356 356 357 355 353 350 349 347 345 343 343 341 338 331 334 339 339 339 336 332
346 346 344 344 346 349 349 348 346 343 341 341 341 340 340 341 342 341 342 340 340 348 347 347 349 351 354 356 353 350 347 346 343 341 341 339 329 339 336 337 338 334 333
350 351 349 348 349 347 345 344 338 339 340 341 341 340 338 338 338 342 345 341 339 340 341 342 348 350 350 352 349 347 345 344 344 341 341 341 338 332 335 337 336 336 332
335 337 338 338 338 342 347 345 341 341 341 339 338 337 337 339 339 338 337 337 346 346 339 338 338 341 347 349 350 348 345 345 344 340 341 341 333 325 330 332 335 334 332
335 334 334 333 334 336 337 338 338 338 336 336 336 335 335 335 337 336 336 340 340 339 340 342 340 340 347 343 347 347 344 345 343 338 341 337 328 329 327 326 329 333 332
335 339 337 336 337 342 337 344 340 339 343 346 346 345 345 347 345 338 335 336 341 339 340 343 343 346 342 343 341 340 343 341 342 339 339 329 330 328 322 323 327 332 328
337 337 336 335 335 333 335 336 346 347 345 344 344 343 343 345 344 343 341 340 342 340 340 341 341 342 341 341 342 343 343 343 342 338 332 330 329 328 321 320 321 317 319
333 332 333 333 333 333 340 336 341 341 339 336 341 340 340 344 344 343 342 341 341 341 342 341 339 340 342 342 339 338 341 340 338 335 328 326 325 321 317 313 313 319 320
337 341 341 340 336 340 335 333 333 334 333 332 333 334 337 339 337 340 341 341 341 341 342 340 341 340 338 337 336 340 339 338 335 331 329 327 322 320 315 315 318 320 322
345 341 341 340 339 339 338 340 334 336 335 334 332 331 332 333 333 335 339 340 340 341 341 341 341 340 340 340 338 338 339 337 337 334 331 324 322 321 318 316 319 323 322
348 345 343 339 340 341 341 341 341 341 336 333 334 334 329 331 334 335 335 336 338 339 341 341 340 340 340 339 339 337 338 338 336 330 325 324 321 320 321 319 322 323 324
347 342 341 343 341 342 344 342 340 340 341 339 332 332 333 330 332 335 334 335 334 336 338 339 339 339 339 338 336 335 337 336 336 332 323 321 321 325 321 321 322 324 325
344 344 345 343 343 341 343 343 341 341 341 340 337 333 331 331 331 332 334 331 331 333 332 333 335 336 336 335 335 337 337 338 337 332 330 326 328 327 323 323 322 327 327
343 339 338 343 344 344 343 343 341 342 342 340 338 332 332 328 328 330 334 332 336 336 333 333 333 334 335 335 335 338 338 337 334 333 329 328 329 325 323 324 325 325 321
342 343 339 343 343 341 340 339 338 338 342 341 338 335 332 332 335 338 339 337 337 334 331 333 333 333 333 334 336 335 335 333 333 333 331 330 328 324 323 324 324 321 322
343 342 342 342 341 341 338 339 337 337 341 342 340 337 332 334 339 339 338 338 338 331 330 332 334 335 334 334 334 334 334 334 334 332 330 329 327 325 325 324 322 322 324
338 338 340 341 340 334 340 341 342 340 339 340 339 340 336 339 340 340 340 339 339 337 333 330 333 333 333 332 334 333 333 332 331 331 329 328 326 323 323 322 322 321 323
331 334 339 339 339 341 340 340 341 339 341 342 341 340 339 339 340 341 341 340 339 339 335 331 331 331 332 333 333 333 331 333 331 328 327 326 321 322 321 322 322 322 321
330 336 339 340 340 339 340 339 339 340 340 340 340 342 342 342 340 341 341 341 340 339 337 336 334 332 333 333 332 332 332 329 325 325 325 322 321 322 323 323 322 320 319
331 336 337 338 339 338 337 336 335 337 337 336 337 339 340 341 342 342 341 341 340 339 337 336 335 332 333 332 331 330 330 329 328 326 324 323 324 325 323 320 318 318 319
Wind_Speed
17 16 16 15 13 12 15 14 13 12 12 13 12 12 11 10 10 9 9 11 11 9 10 12 12 11 9 9 9 8 7 8 10 8 5 9 9 12 16 18 16 17 17
18 21 20 18 17 16 14 16 16 15 15 15 14 15 14 14 14 12 13 12 12 13 13 15 15 13 15 14 13 14 9 9 10 11 9 8 9 11 14 16 15 14 13
14 15 17 19 20 18 17 15 16 16 16 16 17 18 18 17 18 16 17 17 17 18 17 19 20 19 19 16 18 16 13 14 13 13 9 8 9 12 14 14 15 15 13
11 12 13 15 17 17 17 19 17 17 16 17 18 18 18 18 19 18 17 18 19 19 21 23 22 22 24 24 21 22 24 20 13 16 10 11 9 12 15 16 16 15 13
8 10 12 13 14 15 16 19 19 19 17 18 18 19 19 20 20 20 20 21 20 20 22 24 25 26 29 27 25 25 28 23 15 17 11 11 12 14 16 16 15 14 14
4 4 5 9 10 12 14 15 17 19 19 19 18 15 13 17 18 18 20 21 22 22 23 25 26 29 33 32 29 29 30 26 21 20 13 16 16 17 14 20 16 14 14
2 5 3 4 6 9 12 14 15 14 14 16 16 15 17 18 19 20 23 23 24 25 25 23 22 23 26 32 29 31 30 24 20 17 18 20 17 19 17 19 17 15 11
1 1 1 1 2 3 4 8 11 18 18 17 20 22 22 23 26 26 30 33 33 28 24 25 26 26 28 31 26 30 23 21 19 23 25 23 23 13 19 17 16 16 12
3 2 1 2 5 8 11 11 11 12 13 15 17 18 19 20 23 21 21 20 24 34 34 28 26 26 29 33 29 29 27 29 30 23 24 25 22 16 15 15 15 14 13
3 3 3 3 3 4 6 8 10 11 13 14 16 15 15 15 16 14 15 17 13 14 26 25 22 21 24 24 23 27 29 33 29 22 22 21 18 17 17 18 12 15 14
7 6 5 4 4 3 3 5 7 9 10 14 16 18 19 18 18 19 18 17 16 16 16 16 18 19 15 9 8 18 12 12 19 17 19 19 18 17 19 19 20 16 15
5 6 6 6 5 5 8 8 9 9 10 11 12 13 11 14 17 18 18 18 18 16 12 13 13 9 12 13 12 15 18 20 21 18 23 20 14 16 16 18 17 19 17
4 4 5 6 7 9 9 9 6 6 7 9 9 10 12 12 15 17 14 14 15 15 13 14 13 14 15 14 12 13 16 16 15 20 20 15 15 13 16 16 16 15 15
3 5 7 6 8 8 7 9 8 7 10 8 7 11 12 11 10 11 12 10 9 9 11 11 8 7 6 6 6 6 5 7 12 17 16 16 18 15 13 14 16 17 14
2 2 5 5 7 8 12 12 9 6 7 7 10 14 14 12 10 11 10 7 5 4 0 2 3 5 4 2 3 6 9 9 12 16 17 16 15 17 16 17 19 20 16
2 2 2 3 3 6 7 7 6 5 4 5 7 10 12 17 14 9 8 8 6 7 8 4 4 5 4 2 2 3 9 10 13 14 14 15 18 19 17 19 19 18 17
4 4 3 2 3 5 6 5 5 7 6 6 4 8 4 12 14 10 7 5 4 1 2 4 4 6 5 4 3 5 5 10 13 14 15 18 21 21 19 22 20 18 15
6 7 5 4 4 5 7 6 5 6 6 6 5 5 6 8 10 10 5 6 5 4 4 5 7 8 8 9 10 9 8 10 15 16 17 18 19 16 19 20 18 14 12
6 5 5 4 4 7 7 6 6 7 6 3 6 1 2 5 9 12 11 12 10 8 7 8 11 11 10 9 9 7 7 9 13 18 18 19 16 18 20 19 16 13 12
1 2 3 3 5 6 7 7 7 6 4 2 1 1 6 4 7 10 9 8 7 7 8 8 7 7 7 8 7 5 5 7 9 11 17 18 17 18 21 13 13 13 12
2 3 3 3 4 5 6 6 6 3 3 4 4 4 6 8 10 5 4 5 5 8 8 4 4 5 7 7 7 6 5 5 7 12 16 16 19 19 18 14 12 16 9
2 3 3 3 3 5 3 4 4 1 2 3 4 9 7 6 5 4 4 4 5 9 9 6 3 4 5 7 6 4 5 7 8 10 12 13 13 14 13 17 14 9 9
4 4 5 5 4 2 1 2 3 2 3 4 3 4 5 4 5 5 5 4 4 5 7 8 4 5 6 6 6 4 5 5 7 10 14 12 13 18 19 15 8 10 9
7 5 4 4 1 1 1 2 2 2 1 2 3 4 5 6 7 8 7 6 5 5 8 8 6 5 7 6 5 7 7 7 12 14 14 17 17 18 20 13 11 9 8
4 4 3 3 3 3 4 3 3 3 3 2 2 3 6 7 8 9 8 8 6 5 5 5 5 6 3 6 4 7 12 12 13 11 14 14 16 14 11 10 11 9 9
2 4 3 3 3 3 3 4 5 5 4 4 4 4 4 6 8 9 9 9 7 6 4 4 4 3 4 5 7 9 9 11 10 12 14 13 13 13 11 11 11 10 9
Wind_Direction
232 227 229 230 234 239 240 239 235 235 243 246 247 249 259 253 259 266 263 244 258 252 247 255 266 265 268 271 260 269 281 273 280 282 258 254 243 233 234 225 229 226 230
231 234 243 250 247 239 245 242 242 244 244 246 247 254 258 259 264 261 265 253 258 260 267 272 274 268 275 268 257 263 263 271 274 271 263 273 254 233 221 214 208 205 217
236 236 233 244 249 242 233 241 245 246 245 247 253 252 253 255 259 260 260 259 256 253 257 265 270 271 269 267 259 255 257 271 291 249 250 244 241 229 220 200 197 202 207
226 234 234 236 237 235 232 237 243 253 250 251 253 257 255 252 253 255 250 257 253 254 258 263 261 263 268 272 268 265 267 276 257 240 244 246 233 235 212 208 206 202 203
238 241 242 243 237 236 227 232 234 239 247 249 249 253 254 251 251 253 255 253 251 250 255 261 266 264 270 269 265 259 274 267 246 238 237 233 225 218 214 215 213 210 213
221 224 231 237 239 238 232 233 244 247 246 249 247 249 259 263 263 259 260 260 260 255 255 256 263 268 273 269 265 261 268 266 265 245 242 235 232 226 215 215 212 207 210
275 261 270 248 241 228 231 229 230 223 235 240 245 262 267 267 268 264 257 256 260 261 262 261 265 264 265 271 270 264 264 269 266 256 262 237 218 232 217 212 203 211 217
359 19 24 325 272 257 249 259 253 278 279 272 268 268 269 265 261 262 258 265 263 262 267 273 270 270 266 266 270 273 268 266 253 257 247 239 221 218 225 223 210 201 210
39 35 273 249 264 273 275 265 264 263 264 265 267 269 274 277 277 281 275 280 266 258 262 275 274 273 272 269 267 261 261 260 251 244 248 244 250 216 225 206 209 201 210
28 31 24 1 317 273 271 273 287 288 284 289 291 288 287 288 292 297 293 289 274 274 268 271 275 279 273 268 258 256 250 238 242 243 242 240 224 208 212 207 211 210 215
63 50 30 14 14 8 322 302 297 294 285 294 291 289 293 293 289 289 291 292 286 284 280 279 283 284 270 264 259 233 212 213 241 239 233 208 203 213 214 217 205 203 224
8 1 0 7 15 345 345 326 318 311 316 314 313 318 309 307 309 293 288 283 281 286 294 286 289 267 278 291 273 249 246 238 248 228 209 194 191 195 206 210 209 192 199
30 33 35 27 16 359 351 341 343 320 330 327 327 324 321 309 305 307 303 290 278 272 278 274 274 273 275 276 250 247 240 235 224 206 183 181 189 180 205 198 197 203 194
20 31 31 29 5 12 8 352 339 332 339 4 357 357 355 345 337 332 319 314 302 290 269 267 262 262 232 234 239 239 228 194 184 179 185 193 202 199 195 192 184 178 181
338 13 25 18 37 25 21 23 36 44 30 18 9 7 3 359 356 1 18 9 14 24 32 146 165 175 174 196 226 225 207 195 189 193 196 202 203 192 193 186 184 187 184
280 292 309 15 3 356 357 355 360 358 2 3 24 7 10 1 3 3 12 14 32 81 87 96 144 160 157 131 102 199 201 214 215 217 207 194 197 195 197 200 197 201 200
260 260 268 320 326 347 341 333 311 307 291 305 344 2 333 350 348 0 9 18 11 23 144 187 202 213 200 172 306 297 262 236 219 210 194 187 200 208 200 200 204 208 227
269 264 250 260 288 315 322 310 297 307 295 295 289 348 330 321 333 335 339 10 359 320 265 252 238 243 254 275 285 278 258 236 221 214 209 209 211 222 196 204 209 232 231
269 249 235 258 278 308 317 318 310 308 312 280 306 210 119 307 355 331 335 349 353 332 313 279 262 260 262 271 274 280 244 236 229 221 218 208 204 207 199 211 211 212 208
17 209 244 278 303 320 320 319 320 313 310 264 237 158 191 197 256 285 310 340 339 322 309 299 273 255 260 265 260 259 249 231 225 218 211 218 223 201 200 216 199 200 188
256 282 303 331 313 324 325 326 319 307 291 242 248 239 229 258 283 264 277 309 330 335 334 315 286 250 261 264 259 263 234 229 215 212 213 213 207 203 213 222 198 188 207
271 284 291 288 305 325 309 342 346 297 280 256 256 269 266 274 242 230 252 295 319 338 340 328 299 257 245 255 262 236 226 235 226 214 199 198 193 194 186 188 183 201 190
285 284 288 296 307 296 353 339 357 316 266 273 259 237 261 225 221 236 252 263 289 315 325 332 302 268 258 250 241 227 197 215 205 187 170 166 187 183 177 177 195 186 195
278 277 272 282 204 47 322 305 313 10 63 250 247 237 234 237 239 248 247 257 267 289 313 334 330 297 231 235 237 212 197 177 176 180 183 186 183 183 185 194 188 193 195
289 262 250 266 279 281 297 309 281 291 300 302 298 269 260 258 257 245 246 249 253 265 282 282 285 288 235 217 201 187 209 210 189 192 176 179 175 174 179 178 187 194 189
263 228 241 262 287 300 302 309 305 299 300 306 307 304 291 267 261 255 246 244 249 260 264 278 272 280 215 200 208 225 220 210 200 183 157 160 170 172 180 185 185 186 196